Location: Tierz
(42.1336°N, 0.3549°W)
Time: 22:51:12
(UTC+00:00)

ARGOS - Pass Details

Date: 29 October 2020
Orbit: 819 x 835 km, 98.4° (Epoch: 05 December)

Event Time Altitude Azimuth Distance (km) Brightness Sun altitude
Exits shadow 18:17:21 22° 93° (E) 1,733 4.2 -15.1°
Maximum altitude 18:19:03 26° 65° (ENE) 1,577 4.1 -15.4°
Drops below altitude 10° 18:23:30 10° 10° (N) 2,456 5.5 -16.3°
Sets 18:26:11 0° 358° (N) 3,394 6.3 -16.8°
